User: anonymous   Login
Location: Unspecified
(0.0000°N, 0.0000°E)
Time: 00:00:42
(UTC+00:00)
Language:

STARLINK-32301 - Orbit

View from above orbital plane
View from above orbital plane
View from above satellite
View from above satellite

Ground track
Ground track

The orbit is defined by the following mean orbital elements,

1 61664U          26145.28302398 +.00000000 +00000-0 +39239-4 0 00009
2 61664  53.1605  95.2252 0001171  93.0260 267.0875 15.31708118    00
Epoch (UTC): 25 May 2026 06:47:33
Eccentricity: 0.0001171
inclination: 53.1605°
perigee height: 470 km
apogee height: 472 km
right ascension of ascending node: 95.2252°
argument of perigee: 93.0260°
revolutions per day: 15.31708118
mean anomaly at epoch: 267.0875°

The dashed part of the orbit path shows where the satellite is in the earth's shadow,  

DLR